Hourly Data Report for January 06, 2022

BANCROFT AUTO
ONTARIO
Current Station Operator: ECCC - MSC

45°04'17.000" N
77°52'44.000" W
330.70 m
616I001
71294
WRK

Download Data

Hourly Data (January 2022)
Hourly Data Report for January 6, 2022
TIME
LST
Temp Definition
°C
Dew Point Definition
°C
Rel Hum Definition
%
Precip. Amount Definition
mm

Wind Dir Definition
10's deg

Wind Spd Definition
km/h
Visibility Definition
km
Stn Press Definition
kPa
Hmdx Definition


Wind Chill Definition


Weather Definition


00:00 -4.8 -6.5 88 0.0 22 5   96.08   -7 LegendNANA
01:00 -5.3 -6.9 89 0.0 24 6   96.10   -8 LegendNANA
02:00 -5.7 -7.3 88 0.1 23 5   96.17   -8 LegendNANA
03:00 -5.8 -7.5 88 0.0 23 9   96.28   -10 LegendNANA
04:00 -6.2 -7.6 90 0.0 20 5   96.35   -9 LegendNANA
05:00 -6.0 -7.3 91 0.0 21 2   96.43   -7 LegendNANA
06:00 -5.5 -7.7 84 0.0 25 7   96.53   -9 LegendNANA
07:00 -6.4 -8.4 86 0.0 26 6   96.60   -9 LegendNANA
08:00 -7.4 -9.2 87 0.0 27 4   96.67   -9 LegendNANA
09:00 -8.4 -10.9 82 0.0 27 6   96.83   -12 LegendNANA
10:00 -8.8 -11.4 82 0.0 29 4   96.91   -11 LegendNANA
11:00 -7.9 -11.6 75 0.0 30 5   96.94   -11 LegendNANA
12:00 -7.9 -11.9 73 0.0 33 9   96.92   -12 LegendNANA
13:00 -6.0 -11.1 67 0.0 24 7   96.95   -9 LegendNANA
14:00 -6.7 -11.5 69 0.0 29 8   96.99   -11 LegendNANA
15:00 -6.9 -11.2 71 0.0 27 6   97.00   -10 LegendNANA
16:00 -8.1 -10.9 80 0.0 33 5   97.01   -11 LegendNANA
17:00 -10.4 -11.8 90 0.0 22 2   97.16   -12 LegendNANA
18:00 -9.7 -10.9 91 0.0   0   97.15     LegendNANA
19:00 -10.9 -13.3 83 0.0 4 7   97.16   -15 LegendNANA
20:00 -12.9 -15.3 82 0.0 3 8   97.16   -18 LegendNANA
21:00 -14.6 -17.3 80 0.0 5 8   97.17   -20 LegendNANA
22:00 -14.9 -17.4 82 0.0 2 6   97.19   -19 LegendNANA
23:00 -15.1 -17.6 82 0.0 2 5   97.17   -19 LegendNANA

Notes on Data Quality.

Legend

  • E = Estimated
  • M = Missing
  • NA = Not Available*
  • [empty] = Indicates an unobserved value
Date modified: